Location: Saint Mary
(48.7436°N, 113.4291°W)
Time: 02:13:10
(UTC+00:00)

BlueWalker 3 - Pass Details

Date: 19 December 2025
Orbit: 451 x 463 km, 53.2° (Epoch: 19 January)

Event Time Altitude Azimuth Distance (km) Brightness Sun altitude
Rises 14:32:27 0° 211° (SSW) 2,453 5.4 -8.0°
Reaches altitude 10° 14:34:45 10° 199° (SSW) 1,587 4.6 -7.6°
Maximum altitude 14:37:50 27° 139° (SE) 898 4.1 -7.2°
Drops below altitude 10° 14:40:56 10° 80° (E) 1,603 5.4 -6.7°
Sets 14:43:17 0° 68° (ENE) 2,483 6.1 -6.4°
